Location: Huberhof
(49.2050°N, 7.4980°E)
Time: 04:25:38
(UTC+00:00)

Cosmos 1553 Rocket - Pass Details

Date: 29 October 2020
Orbit: 940 x 1009 km, 82.9° (Epoch: 25 November)

Event Time Altitude Azimuth Distance (km) Brightness Sun altitude
Rises 17:41:43 0° 184° (S) 3,710 7.1 -14.9°
Reaches altitude 10° 17:44:15 10° 184° (S) 2,757 6.5 -15.3°
Maximum altitude 17:50:35 84° 98° (E) 998 4.0 -16.4°
Drops below altitude 10° 17:56:52 10° 11° (N) 2,730 6.2 -17.4°
Sets 17:59:21 0° 10° (N) 3,671 6.9 -17.8°
